Farmington, NM

10:51 AM MDT on March 28, 2017 (GMT -0600)
Four Corners Regional

Weather History for KFMN - July, 2013

Change the Weather History Date:

Saturday, July 6, 2013

  Actual Average Record
Temperature  
Mean Temperature 80 °F -  
Max Temperature 96 °F 91 °F 102 °F (1989)
Min Temperature 64 °F 58 °F 47 °F (1982)
Cooling Degree Days 15    
Growing Degree Days 30 (Base 50)    
Moisture  
Dew Point 49 °F    
Average Humidity 36    
Maximum Humidity 65    
Minimum Humidity 10    
Precipitation  
Precipitation 0.00 in - - ()
Sea Level Pressure  
Sea Level Pressure 29.84 in    
Wind  
Wind Speed 8 mph (ENE)    
Max Wind Speed 24 mph    
Max Gust Speed 32 mph    
Visibility 10 miles    
Events      
Averages and records for this station are not official NWS values.
T = Trace of Precipitation, MM = Missing Value Source: NWS Daily Summary

Daily Weather History Graph

Daily Weather History Graph

Search for Another Location

Airport or City:

Trip Planner

Search our weather history database for the weather conditions in past years. The results will help you decide how hot, cold, wet, or windy it might be!

Date:

Astronomy

Jul. 06, 2013 Rise Set
Actual Time 6:00 AM MDT 8:34 PM MDT
Civil Twilight 5:30 AM MDT 9:05 PM MDT
Nautical Twilight 4:52 AM MDT 9:42 PM MDT
Astronomical Twilight 4:10 AM MDT 10:24 PM MDT
Moon 4:47 AM MDT (7/6) 7:20 PM MDT (7/6)
Length of Visible Light 15h 35m
Length of Day
14h 34m
Waning Crescent, 2% of the Moon is Illuminated
Jul 6
Waning Crescent
Jul 8
New
Jul 15
First Quarter
Jul 22
Full
Jul 29
Last Quarter

Hourly Weather History & Observations

Time (MDT) Temp. Dew Point Humidity Pressure Visibility Wind Dir Wind Speed Gust Speed Precip Events Conditions
12:53 AM 73.0 °F 48.9 °F 42% 29.84 in 10.0 mi WNW 9.2 mph - N/A   Clear
1:53 AM 71.1 °F 50.0 °F 47% 29.86 in 10.0 mi WSW 4.6 mph - N/A   Scattered Clouds
2:53 AM 68.0 °F 52.0 °F 56% 29.86 in 10.0 mi WNW 3.5 mph - N/A   Partly Cloudy
3:53 AM 66.9 °F 51.1 °F 57% 29.86 in 10.0 mi East 8.1 mph - N/A   Clear
4:53 AM 66.0 °F 53.1 °F 63% 29.85 in 10.0 mi East 4.6 mph - N/A   Clear
5:53 AM 64.9 °F 52.0 °F 63% 29.85 in 10.0 mi East 5.8 mph - N/A   Clear
6:53 AM 64.9 °F 53.1 °F 65% 29.86 in 10.0 mi East 5.8 mph - N/A   Clear
7:53 AM 66.0 °F 52.0 °F 60% 29.88 in 10.0 mi ENE 3.5 mph - N/A   Clear
8:53 AM 72.0 °F 52.0 °F 49% 29.90 in 10.0 mi East 5.8 mph - N/A   Clear
9:53 AM 75.9 °F 54.0 °F 46% 29.89 in 10.0 mi SE 5.8 mph - N/A   Clear
10:53 AM 80.1 °F 51.1 °F 36% 29.88 in 10.0 mi South 4.6 mph - N/A   Clear
11:53 AM 82.9 °F 50.0 °F 32% 29.86 in 10.0 mi Calm Calm - N/A   Clear
12:53 PM 87.1 °F 46.9 °F 25% 29.84 in 10.0 mi Variable 5.8 mph - N/A   Clear
1:53 PM 90.0 °F 46.9 °F 23% 29.80 in 10.0 mi West 13.8 mph 19.6 mph N/A   Clear
2:53 PM 93.0 °F 44.1 °F 18% 29.75 in 10.0 mi WNW 17.3 mph 23.0 mph N/A   Clear
3:00 PM 93.2 °F 44.6 °F 19% 29.97 in 10.0 mi West 10.4 mph 23.0 mph N/A   Clear
3:53 PM 95.0 °F 43.0 °F 17% 29.72 in 10.0 mi West 16.1 mph 19.6 mph N/A   Clear
4:53 PM 93.0 °F 41.0 °F 16% 29.71 in 10.0 mi WSW 16.1 mph 26.5 mph N/A   Clear
5:53 PM 91.0 °F 41.0 °F 17% 29.73 in 10.0 mi West 24.2 mph 32.2 mph N/A   Partly Cloudy
6:53 PM 88.0 °F 41.0 °F 19% 29.75 in 10.0 mi West 23.0 mph 27.6 mph N/A   Overcast
7:53 PM 82.9 °F 45.0 °F 26% 29.81 in 10.0 mi NE 5.8 mph 19.6 mph N/A   Partly Cloudy
8:53 PM 79.0 °F 50.0 °F 36% 29.87 in 10.0 mi ESE 13.8 mph - N/A   Partly Cloudy
9:53 PM 75.9 °F 50.0 °F 40% 29.93 in 10.0 mi NE 12.7 mph - 0.00 in   Overcast
10:53 PM 73.9 °F 51.1 °F 45% 29.94 in 10.0 mi NE 12.7 mph - N/A   Mostly Cloudy
11:53 PM 73.9 °F 50.0 °F 43% 29.92 in 10.0 mi East 9.2 mph - N/A   Scattered Clouds